Location: �clusier
(49.9361°N, 2.7869°E)
Time: 04:28:00
(UTC+00:00)

Cosmos 1943 Rocket - Pass Details

Date: 29 October 2021
Orbit: 811 x 844 km, 71.0° (Epoch: 07 December)

Event Time Altitude Azimuth Distance (km) Brightness Sun altitude
Rises 20:32:30 0° 330° (NNW) 3,415 6.0 -38.6°
Reaches altitude 10° 20:34:58 10° 329° (NNW) 2,474 5.2 -38.9°
Enters shadow 20:36:59 23° 328° (NNW) 1,729 4.2 -39.2°
